| time (UTC) | temp F | wind direction | speed knots | gust knots | rain 1hr in | rain 24hr in | rain mn in | humidity % | barometer mb |
| 20260507033438 | 68 | 52 | 0.0 | 1.7 | 0.00 | 0.09 | 0.09 | 88 | 1011.5 |
| 20260507032934 | 68 | 244 | 0.9 | 1.7 | 0.00 | 0.09 | 0.09 | 88 | 1011.1 |
| 20260507032431 | 68 | 254 | 0.9 | 1.7 | 0.00 | 0.09 | 0.09 | 88 | 1011.0 |
| 20260507031927 | 68 | 0 | 0.0 | 2.6 | 0.00 | 0.09 | 0.09 | 87 | 1011.1 |
| 20260507031426 | 68 | 250 | 0.9 | 1.7 | 0.00 | 0.09 | 0.09 | 87 | 1010.8 |
| 20260507030921 | 69 | 302 | 0.0 | 3.5 | 0.00 | 0.09 | 0.09 | 87 | 1010.9 |
| 20260507030418 | 69 | 301 | 0.0 | 1.7 | 0.00 | 0.09 | 0.09 | 87 | 1010.9 |
| 20260507025915 | 69 | 264 | 0.9 | 1.7 | 0.00 | 0.09 | 0.09 | 87 | 1010.9 |
| 20260507025412 | 69 | 249 | 1.7 | 1.7 | 0.00 | 0.09 | 0.09 | 87 | 1010.6 |
| 20260507024910 | 69 | 235 | 0.9 | 1.7 | 0.00 | 0.09 | 0.09 | 87 | 1010.4 |
| 20260507024407 | 69 | 231 | 2.6 | 3.5 | 0.00 | 0.09 | 0.09 | 87 | 1010.6 |
| 20260507023903 | 69 | 189 | 0.0 | 2.6 | 0.00 | 0.09 | 0.09 | 87 | 1010.7 |
| 20260507023400 | 68 | 224 | 0.0 | 3.5 | 0.00 | 0.09 | 0.09 | 87 | 1010.7 |
| 20260507022857 | 68 | 206 | 2.6 | 2.6 | 0.00 | 0.09 | 0.09 | 87 | 1011.0 |
| 20260507022354 | 68 | 268 | 0.0 | 2.6 | 0.00 | 0.09 | 0.09 | 87 | 1010.8 |
| 20260507021850 | 68 | 175 | 0.0 | 1.7 | 0.00 | 0.09 | 0.09 | 87 | 1011.1 |
| 20260507021345 | 68 | 224 | 2.6 | 3.5 | 0.00 | 0.09 | 0.09 | 87 | 1010.9 |
| 20260507020843 | 68 | 251 | 1.7 | 1.7 | 0.00 | 0.09 | 0.09 | 87 | 1011.2 |
| 20260507020339 | 68 | 278 | 0.9 | 1.7 | 0.00 | 0.09 | 0.09 | 87 | 1011.2 |
| 20260507015836 | 68 | 306 | 1.7 | 1.7 | 0.00 | 0.09 | 0.09 | 87 | 1011.3 |
| 20260507015335 | 68 | 269 | 0.0 | 1.7 | 0.00 | 0.09 | 0.09 | 87 | 1011.3 |
| 20260507014831 | 68 | 212 | 0.0 | 1.7 | 0.00 | 0.09 | 0.09 | 87 | 1011.5 |
| 20260507014327 | 68 | 231 | 0.0 | 2.6 | 0.00 | 0.09 | 0.09 | 87 | 1011.4 |
| 20260507013824 | 68 | 197 | 0.9 | 1.7 | 0.00 | 0.09 | 0.09 | 87 | 1011.1 |
| 20260507013321 | 68 | 205 | 0.0 | 1.7 | 0.00 | 0.09 | 0.09 | 87 | 1011.5 |
| 20260507012819 | 68 | 203 | 0.9 | 1.7 | 0.00 | 0.09 | 0.09 | 87 | 1011.3 |
| 20260507012314 | 68 | 220 | 0.0 | 1.7 | 0.00 | 0.09 | 0.09 | 86 | 1011.5 |
| 20260507011806 | 68 | 239 | 1.7 | 2.6 | 0.00 | 0.09 | 0.09 | 86 | 1011.2 |
| 20260507011303 | 68 | 269 | 0.9 | 1.7 | 0.00 | 0.09 | 0.09 | 87 | 1011.4 |
| 20260507010802 | 68 | 249 | 0.0 | 0.9 | 0.00 | 0.09 | 0.09 | 87 | 1011.4 |
| 20260507010258 | 68 | 260 | 0.0 | 0.9 | 0.00 | 0.09 | 0.09 | 86 | 1011.3 |
| 20260507005756 | 68 | 247 | 1.7 | 2.6 | 0.00 | 0.09 | 0.09 | 86 | 1010.9 |
| 20260507005252 | 68 | 228 | 0.0 | 1.7 | 0.00 | 0.09 | 0.09 | 86 | 1010.7 |
| 20260507004749 | 68 | 266 | 0.0 | 0.9 | 0.00 | 0.09 | 0.09 | 86 | 1011.1 |
| 20260507004247 | 68 | 221 | 2.6 | 2.6 | 0.00 | 0.09 | 0.09 | 86 | 1011.1 |
| 20260507003743 | 68 | 200 | 0.9 | 2.6 | 0.00 | 0.09 | 0.09 | 85 | 1011.0 |
| 20260507003238 | 69 | 182 | 0.0 | 1.7 | 0.00 | 0.09 | 0.09 | 85 | 1011.3 |
| 20260507002734 | 69 | 230 | 2.6 | 3.5 | 0.00 | 0.09 | 0.09 | 85 | 1011.4 |
| 20260507002230 | 69 | 263 | 2.6 | 2.6 | 0.00 | 0.09 | 0.09 | 85 | 1011.1 |
| 20260507001727 | 69 | 240 | 0.0 | 1.7 | 0.00 | 0.09 | 0.09 | 84 | 1011.3 |
| 20260507001225 | 69 | 194 | 1.7 | 4.3 | 0.00 | 0.09 | 0.09 | 84 | 1011.2 |
| 20260507000721 | 69 | 221 | 1.7 | 1.7 | 0.00 | 0.09 | 0.09 | 84 | 1011.2 |
| 20260507000216 | 69 | 157 | 0.9 | 3.5 | 0.00 | 0.09 | 0.09 | 83 | 1011.3 |
| 20260506235714 | 69 | 283 | 0.0 | 1.7 | 0.00 | 0.09 | 0.09 | 84 | 1011.1 |
| 20260506235209 | 69 | 204 | 0.9 | 1.7 | 0.00 | 0.09 | 0.09 | 83 | 1011.0 |
| 20260506234706 | 69 | 123 | 0.0 | 1.7 | 0.00 | 0.09 | 0.09 | 82 | 1011.2 |
| 20260506234204 | 69 | 208 | 2.6 | 2.6 | 0.00 | 0.09 | 0.09 | 82 | 1010.9 |
| 20260506233701 | 70 | 269 | 0.0 | 1.7 | 0.00 | 0.09 | 0.09 | 82 | 1010.8 |
| 20260506233157 | 70 | 245 | 0.9 | 3.5 | 0.00 | 0.09 | 0.09 | 81 | 1011.1 |
| 20260506232654 | 70 | 151 | 0.0 | 1.7 | 0.00 | 0.09 | 0.09 | 81 | 1010.8 |
| 20260506232149 | 70 | 216 | 1.7 | 3.5 | 0.00 | 0.09 | 0.09 | 81 | 1010.8 |
| 20260506231646 | 70 | 221 | 0.0 | 2.6 | 0.00 | 0.09 | 0.09 | 80 | 1010.7 |
| 20260506231145 | 70 | 252 | 0.9 | 3.5 | 0.00 | 0.09 | 0.09 | 80 | 1010.9 |
| 20260506230641 | 70 | 189 | 0.0 | 2.6 | 0.00 | 0.09 | 0.09 | 79 | 1010.7 |
| 20260506230138 | 70 | 216 | 1.7 | 2.6 | 0.00 | 0.09 | 0.09 | 79 | 1010.6 |
| 20260506225635 | 70 | 220 | 0.9 | 3.5 | 0.00 | 0.09 | 0.09 | 79 | 1010.8 |
| 20260506225131 | 70 | 148 | 1.7 | 4.3 | 0.00 | 0.09 | 0.09 | 79 | 1010.8 |
| 20260506224628 | 70 | 173 | 1.7 | 3.5 | 0.00 | 0.09 | 0.09 | 79 | 1010.7 |
| 20260506224124 | 70 | 230 | 0.0 | 2.6 | 0.00 | 0.09 | 0.09 | 80 | 1011.1 |
| 20260506223621 | 70 | 206 | 0.0 | 1.7 | 0.00 | 0.09 | 0.09 | 80 | 1010.9 |
| 20260506223117 | 70 | 246 | 1.7 | 3.5 | 0.00 | 0.09 | 0.09 | 79 | 1010.8 |
| 20260506222614 | 70 | 230 | 0.0 | 4.3 | 0.00 | 0.09 | 0.09 | 80 | 1011.0 |
| 20260506222110 | 70 | 277 | 1.7 | 1.7 | 0.00 | 0.09 | 0.09 | 80 | 1010.9 |
| 20260506221608 | 70 | 254 | 0.9 | 2.6 | 0.00 | 0.09 | 0.09 | 79 | 1011.1 |
| 20260506221106 | 70 | 226 | 1.7 | 5.2 | 0.00 | 0.09 | 0.09 | 78 | 1010.9 |
| 20260506220602 | 70 | 208 | 1.7 | 3.5 | 0.00 | 0.09 | 0.09 | 79 | 1011.1 |
| 20260506220057 | 70 | 279 | 2.6 | 4.3 | 0.00 | 0.09 | 0.09 | 79 | 1010.7 |
| 20260506215554 | 70 | 240 | 1.7 | 2.6 | 0.00 | 0.09 | 0.09 | 79 | 1010.6 |
| 20260506215050 | 70 | 269 | 0.0 | 2.6 | 0.00 | 0.09 | 0.09 | 79 | 1011.0 |
| 20260506214547 | 70 | 190 | 3.5 | 3.5 | 0.00 | 0.09 | 0.09 | 79 | 1010.6 |
| 20260506214044 | 70 | 211 | 1.7 | 4.3 | 0.00 | 0.09 | 0.09 | 79 | 1010.9 |
| 20260506213543 | 71 | 226 | 1.7 | 5.2 | 0.00 | 0.09 | 0.09 | 78 | 1010.7 |
| 20260506213040 | 71 | 241 | 1.7 | 4.3 | 0.00 | 0.09 | 0.09 | 79 | 1010.7 |
| 20260506212536 | 71 | 220 | 2.6 | 3.5 | 0.00 | 0.09 | 0.09 | 79 | 1010.7 |
| 20260506212031 | 70 | 220 | 1.7 | 5.2 | 0.00 | 0.09 | 0.09 | 79 | 1011.1 |
| 20260506211527 | 71 | 239 | 2.6 | 7.8 | 0.00 | 0.09 | 0.09 | 79 | 1010.9 |
| 20260506211024 | 70 | 272 | 1.7 | 5.2 | 0.00 | 0.09 | 0.09 | 80 | 1010.9 |
| 20260506210521 | 70 | 208 | 1.7 | 5.2 | 0.00 | 0.09 | 0.09 | 81 | 1011.0 |
| 20260506210017 | 71 | 229 | 1.7 | 2.6 | 0.00 | 0.09 | 0.09 | 81 | 1011.1 |
| 20260506205514 | 70 | 258 | 1.7 | 5.2 | 0.00 | 0.09 | 0.09 | 81 | 1010.9 |
| 20260506205009 | 70 | 265 | 0.9 | 3.5 | 0.00 | 0.09 | 0.09 | 82 | 1011.0 |
| 20260506204508 | 70 | 211 | 1.7 | 3.5 | 0.00 | 0.09 | 0.09 | 82 | 1010.8 |
| 20260506204004 | 70 | 212 | 1.7 | 4.3 | 0.00 | 0.09 | 0.09 | 82 | 1011.1 |
| 20260506203502 | 69 | 252 | 1.7 | 1.7 | 0.00 | 0.09 | 0.09 | 83 | 1011.1 |
| 20260506202958 | 69 | 279 | 0.9 | 1.7 | 0.00 | 0.09 | 0.09 | 84 | 1010.7 |
| 20260506202456 | 68 | 211 | 1.7 | 2.6 | 0.00 | 0.09 | 0.09 | 84 | 1010.9 |
| 20260506201946 | 68 | 212 | 0.0 | 0.9 | 0.00 | 0.09 | 0.09 | 86 | 1010.8 |
| 20260506201444 | 68 | 191 | 0.9 | 0.9 | 0.00 | 0.09 | 0.09 | 86 | 1011.3 |
| 20260506200941 | 68 | 290 | 0.0 | 2.6 | 0.00 | 0.09 | 0.09 | 86 | 1011.3 |
| 20260506200437 | 68 | 278 | 0.0 | 1.7 | 0.00 | 0.09 | 0.09 | 86 | 1011.4 |
| 20260506195933 | 68 | 72 | 0.0 | 0.9 | 0.00 | 0.09 | 0.09 | 87 | 1011.1 |
| 20260506195430 | 68 | 235 | 0.0 | 2.6 | 0.00 | 0.09 | 0.09 | 86 | 1011.2 |
| 20260506194927 | 68 | 204 | 1.7 | 1.7 | 0.00 | 0.09 | 0.09 | 86 | 1010.7 |
| 20260506194424 | 67 | 290 | 0.0 | 2.6 | 0.00 | 0.09 | 0.09 | 87 | 1010.8 |
| 20260506193921 | 67 | 264 | 0.0 | 2.6 | 0.00 | 0.09 | 0.09 | 86 | 1010.6 |
| 20260506193419 | 67 | 221 | 0.0 | 4.3 | 0.00 | 0.09 | 0.09 | 86 | 1010.5 |
| 20260506192915 | 67 | 238 | 0.9 | 1.7 | 0.00 | 0.09 | 0.09 | 87 | 1010.6 |
| 20260506192412 | 67 | 201 | 0.0 | 2.6 | 0.00 | 0.09 | 0.09 | 87 | 1010.7 |
| 20260506191909 | 67 | 173 | 1.7 | 3.5 | 0.00 | 0.09 | 0.09 | 87 | 1010.8 |
| 20260506191405 | 66 | 308 | 1.7 | 2.6 | 0.00 | 0.09 | 0.09 | 88 | 1011.1 |
| 20260506190902 | 66 | 198 | 1.7 | 2.6 | 0.00 | 0.09 | 0.09 | 88 | 1011.1 |
| 20260506190358 | 66 | 150 | 0.0 | 2.6 | 0.00 | 0.09 | 0.09 | 89 | 1011.4 |
| 20260506185855 | 66 | 340 | 1.7 | 2.6 | 0.00 | 0.09 | 0.09 | 89 | 1011.4 |
| 20260506185352 | 65 | 216 | 0.0 | 4.3 | 0.00 | 0.09 | 0.09 | 89 | 1011.7 |
| 20260506184849 | 65 | 221 | 4.3 | 7.0 | 0.00 | 0.09 | 0.09 | 89 | 1011.6 |
| 20260506184346 | 65 | 301 | 1.7 | 3.5 | 0.00 | 0.09 | 0.09 | 90 | 1011.6 |
| 20260506183844 | 65 | 177 | 0.0 | 2.6 | 0.00 | 0.09 | 0.09 | 90 | 1011.6 |
| 20260506183339 | 65 | 214 | 2.6 | 2.6 | 0.00 | 0.09 | 0.09 | 90 | 1011.8 |
| 20260506182836 | 65 | 293 | 1.7 | 2.6 | 0.00 | 0.09 | 0.09 | 91 | 1011.6 |
| 20260506182333 | 65 | 255 | 1.7 | 5.2 | 0.00 | 0.09 | 0.09 | 90 | 1011.6 |
| 20260506181831 | 65 | 200 | 1.7 | 6.1 | 0.00 | 0.09 | 0.09 | 88 | 1011.6 |
| 20260506181329 | 65 | 211 | 4.3 | 8.7 | 0.00 | 0.09 | 0.09 | 88 | 1012.0 |
| 20260506180826 | 66 | 139 | 2.6 | 5.2 | 0.00 | 0.09 | 0.09 | 88 | 1012.1 |
| 20260506180321 | 66 | 300 | 0.9 | 4.3 | 0.00 | 0.09 | 0.09 | 88 | 1012.3 |
| 20260506175818 | 66 | 242 | 1.7 | 2.6 | 0.00 | 0.09 | 0.09 | 88 | 1012.4 |
| 20260506175315 | 66 | 180 | 0.0 | 2.6 | 0.00 | 0.09 | 0.09 | 89 | 1012.2 |
| 20260506174812 | 66 | 186 | 1.7 | 3.5 | 0.00 | 0.09 | 0.09 | 89 | 1012.3 |
| 20260506174309 | 65 | 144 | 2.6 | 4.3 | 0.00 | 0.09 | 0.09 | 89 | 1012.5 |
| 20260506173807 | 65 | 248 | 1.7 | 4.3 | 0.00 | 0.09 | 0.09 | 90 | 1012.3 |
| 20260506173304 | 65 | 194 | 1.7 | 5.2 | 0.00 | 0.09 | 0.09 | 89 | 1012.3 |
| 20260506172801 | 65 | 229 | 2.6 | 3.5 | 0.00 | 0.09 | 0.09 | 91 | 1012.1 |
| 20260506172257 | 64 | 248 | 1.7 | 5.2 | 0.00 | 0.09 | 0.09 | 91 | 1012.1 |
| 20260506171755 | 64 | 218 | 1.7 | 2.6 | 0.00 | 0.09 | 0.09 | 93 | 1012.1 |
| 20260506171251 | 64 | 238 | 3.5 | 3.5 | 0.00 | 0.09 | 0.09 | 92 | 1012.1 |
| 20260506170749 | 64 | 228 | 1.7 | 3.5 | 0.00 | 0.09 | 0.09 | 92 | 1012.0 |
| 20260506170245 | 64 | 203 | 1.7 | 7.0 | 0.00 | 0.09 | 0.09 | 92 | 1012.2 |
| 20260506165744 | 64 | 126 | 2.6 | 3.5 | 0.00 | 0.09 | 0.09 | 93 | 1012.6 |
| 20260506165241 | 64 | 238 | 0.0 | 4.3 | 0.00 | 0.09 | 0.09 | 93 | 1012.9 |
| 20260506164738 | 64 | 313 | 0.9 | 4.3 | 0.00 | 0.09 | 0.09 | 94 | 1012.4 |
| 20260506164235 | 64 | 269 | 0.0 | 1.7 | 0.00 | 0.09 | 0.09 | 94 | 1012.6 |
| 20260506163731 | 64 | 197 | 3.5 | 3.5 | 0.02 | 0.09 | 0.09 | 93 | 1012.9 |
| 20260506163226 | 64 | 202 | 1.7 | 3.5 | 0.00 | 0.08 | 0.08 | 93 | 1013.0 |
| 20260506162723 | 63 | 151 | 2.6 | 4.3 | 0.00 | 0.08 | 0.08 | 93 | 1012.9 |
| 20260506162220 | 63 | 207 | 0.9 | 3.5 | 0.00 | 0.08 | 0.08 | 94 | 1012.8 |
| 20260506161718 | 63 | 269 | 0.0 | 3.5 | 0.02 | 0.08 | 0.08 | 94 | 1012.5 |
| 20260506161215 | 63 | 269 | 0.0 | 1.7 | 0.02 | 0.08 | 0.08 | 95 | 1012.7 |
| 20260506160713 | 62 | 304 | 0.0 | 1.7 | 0.02 | 0.08 | 0.08 | 95 | 1012.5 |
| 20260506160209 | 62 | 185 | 2.6 | 5.2 | 0.02 | 0.08 | 0.08 | 95 | 1012.6 |
| 20260506155707 | 62 | 227 | 1.7 | 2.6 | 0.02 | 0.08 | 0.08 | 95 | 1012.7 |
| 20260506155204 | 62 | 264 | 1.7 | 3.5 | 0.00 | 0.07 | 0.07 | 95 | 1012.6 |
| 20260506153306 | 62 | 240 | 0.9 | 1.7 | 0.00 | 0.07 | 0.07 | 95 | 1012.8 |
| 20260506152803 | 62 | 243 | 1.7 | 4.3 | 0.00 | 0.07 | 0.07 | 95 | 1013.0 |
| 20260506152300 | 62 | 269 | 0.0 | 1.7 | 0.02 | 0.07 | 0.07 | 96 | 1013.3 |
| 20260506151759 | 62 | 286 | 0.9 | 1.7 | 0.02 | 0.07 | 0.07 | 96 | 1013.2 |
| 20260506151255 | 62 | 310 | 0.0 | 3.5 | 0.00 | 0.07 | 0.07 | 96 | 1013.1 |
| 20260506150751 | 61 | 7 | 0.0 | 1.7 | 0.00 | 0.07 | 0.07 | 96 | 1013.2 |
| 20260506150249 | 61 | 283 | 0.0 | 1.7 | 0.00 | 0.07 | 0.07 | 97 | 1013.5 |
| 20260506145746 | 62 | 198 | 1.7 | 2.6 | 0.00 | 0.07 | 0.07 | 97 | 1013.7 |
| 20260506145242 | 61 | 237 | 0.9 | 3.5 | 0.00 | 0.07 | 0.07 | 97 | 1013.5 |
| 20260506144739 | 61 | 186 | 0.9 | 2.6 | 0.00 | 0.07 | 0.07 | 97 | 1013.5 |
| 20260506144236 | 61 | 255 | 0.0 | 3.5 | 0.02 | 0.07 | 0.07 | 97 | 1013.6 |
| 20260506143734 | 60 | 269 | 0.0 | 2.6 | 0.02 | 0.07 | 0.07 | 97 | 1013.6 |
| 20260506143231 | 61 | 259 | 1.7 | 1.7 | 0.05 | 0.07 | 0.07 | 97 | 1013.6 |
| 20260506142730 | 61 | 263 | 0.9 | 1.7 | 0.21 | 0.07 | 0.07 | 96 | 1013.7 |
| 20260506142227 | 61 | 144 | 1.7 | 3.5 | 0.21 | 0.06 | 0.06 | 94 | 1014.0 |
| 20260506141725 | 62 | 198 | 3.5 | 3.5 | 0.14 | 0.04 | 0.04 | 93 | 1013.5 |
| 20260506141224 | 62 | 207 | 1.7 | 2.6 | 0.07 | 0.02 | 0.02 | 91 | 1013.5 |
| 20260506140721 | 62 | 242 | 2.6 | 3.5 | 0.02 | 0.01 | 0.01 | 89 | 1013.6 |
| 20260506140217 | 62 | 188 | 0.9 | 4.3 | 0.02 | 0.01 | 0.01 | 88 | 1013.5 |
| 20260506135714 | 63 | 232 | 1.7 | 4.3 | 0.02 | 0.01 | 0.01 | 87 | 1013.3 |
| 20260506135210 | 63 | 277 | 0.0 | 3.5 | 0.02 | 0.00 | 0.00 | 86 | 1013.3 |
| 20260506134707 | 63 | 212 | 5.2 | 5.2 | 0.00 | 0.00 | 0.00 | 82 | 1013.5 |
| 20260506134203 | 64 | 132 | 0.0 | 4.3 | 0.00 | 0.00 | 0.00 | 79 | 1013.4 |
| 20260506133701 | 65 | 289 | 1.7 | 4.3 | 0.00 | 0.00 | 0.00 | 77 | 1013.4 |
| 20260506133157 | 65 | 171 | 3.5 | 4.3 | 0.00 | 0.00 | 0.00 | 76 | 1013.2 |
| 20260506132655 | 65 | 164 | 0.9 | 2.6 | 0.00 | 0.00 | 0.00 | 77 | 1013.2 |
| 20260506132151 | 65 | 199 | 1.7 | 3.5 | 0.00 | 0.00 | 0.00 | 77 | 1013.2 |
| 20260506131649 | 65 | 264 | 2.6 | 3.5 | 0.00 | 0.00 | 0.00 | 77 | 1013.4 |
| 20260506131145 | 65 | 308 | 0.9 | 1.7 | 0.00 | 0.00 | 0.00 | 76 | 1013.1 |
| 20260506130642 | 65 | 282 | 2.6 | 3.5 | 0.00 | 0.00 | 0.00 | 76 | 1013.3 |
| 20260506130140 | 65 | 256 | 0.9 | 4.3 | 0.00 | 0.00 | 0.00 | 77 | 1013.2 |
| 20260506125638 | 65 | 138 | 2.6 | 3.5 | 0.00 | 0.00 | 0.00 | 78 | 1013.0 |
| 20260506125135 | 64 | 180 | 0.9 | 5.2 | 0.00 | 0.00 | 0.00 | 77 | 1013.2 |
| 20260506124633 | 64 | 287 | 1.7 | 3.5 | 0.00 | 0.00 | 0.00 | 78 | 1012.9 |
| 20260506124130 | 64 | 185 | 0.0 | 2.6 | 0.00 | 0.00 | 0.00 | 79 | 1013.2 |
| 20260506123628 | 64 | 214 | 1.7 | 3.5 | 0.00 | 0.00 | 0.00 | 79 | 1013.2 |
| 20260506123126 | 64 | 141 | 0.9 | 4.3 | 0.00 | 0.00 | 0.00 | 79 | 1013.2 |
| 20260506122622 | 64 | 210 | 2.6 | 3.5 | 0.00 | 0.00 | 0.00 | 79 | 1012.8 |
| 20260506122120 | 65 | 198 | 0.0 | 5.2 | 0.00 | 0.00 | 0.00 | 77 | 1012.9 |
| 20260506121618 | 65 | 178 | 2.6 | 3.5 | 0.00 | 0.00 | 0.00 | 77 | 1012.9 |
| 20260506121114 | 65 | 202 | 1.7 | 6.1 | 0.00 | 0.00 | 0.00 | 76 | 1012.9 |
| 20260506120612 | 65 | 210 | 3.5 | 4.3 | 0.00 | 0.00 | 0.00 | 76 | 1012.9 |
| 20260506120109 | 65 | 215 | 2.6 | 2.6 | 0.00 | 0.00 | 0.00 | 76 | 1012.8 |
| 20260506115608 | 65 | 283 | 2.6 | 4.3 | 0.00 | 0.00 | 0.00 | 76 | 1012.9 |
| 20260506115106 | 65 | 234 | 1.7 | 2.6 | 0.00 | 0.00 | 0.00 | 76 | 1012.9 |
| 20260506114602 | 65 | 168 | 0.0 | 3.5 | 0.00 | 0.00 | 0.00 | 76 | 1012.9 |
| 20260506114101 | 65 | 177 | 1.7 | 4.3 | 0.00 | 0.00 | 0.00 | 76 | 1013.0 |
| 20260506113558 | 65 | 147 | 1.7 | 2.6 | 0.00 | 0.00 | 0.00 | 76 | 1012.9 |
| 20260506113055 | 64 | 168 | 2.6 | 7.8 | 0.00 | 0.00 | 0.00 | 76 | 1012.8 |
| 20260506112552 | 64 | 154 | 3.5 | 4.3 | 0.00 | 0.00 | 0.00 | 76 | 1012.8 |
| 20260506112049 | 64 | 263 | 0.9 | 5.2 | 0.00 | 0.00 | 0.00 | 76 | 1013.0 |
| 20260506111547 | 64 | 9 | 0.9 | 2.6 | 0.00 | 0.00 | 0.00 | 76 | 1012.9 |
| 20260506111044 | 64 | 212 | 5.2 | 5.2 | 0.00 | 0.00 | 0.00 | 76 | 1012.8 |
| 20260506110542 | 64 | 274 | 3.5 | 3.5 | 0.00 | 0.00 | 0.00 | 76 | 1012.9 |
| 20260506110039 | 64 | 174 | 0.9 | 2.6 | 0.00 | 0.00 | 0.00 | 76 | 1012.8 |
| 20260506105535 | 64 | 189 | 0.9 | 4.3 | 0.00 | 0.00 | 0.00 | 76 | 1012.6 |
| 20260506105032 | 64 | 164 | 0.0 | 3.5 | 0.00 | 0.00 | 0.00 | 76 | 1012.7 |
| 20260506104530 | 64 | 204 | 0.9 | 2.6 | 0.00 | 0.00 | 0.00 | 76 | 1012.8 |
| 20260506104028 | 64 | 187 | 1.7 | 5.2 | 0.00 | 0.00 | 0.00 | 76 | 1012.7 |
| 20260506103525 | 64 | 192 | 2.6 | 5.2 | 0.00 | 0.00 | 0.00 | 76 | 1013.1 |
| 20260506103021 | 64 | 220 | 0.0 | 6.1 | 0.00 | 0.00 | 0.00 | 76 | 1012.9 |
| 20260506102520 | 64 | 57 | 0.0 | 1.7 | 0.00 | 0.00 | 0.00 | 76 | 1013.2 |
| 20260506102017 | 64 | 261 | 0.0 | 3.5 | 0.00 | 0.00 | 0.00 | 76 | 1013.3 |
| 20260506101513 | 64 | 243 | 0.9 | 3.5 | 0.00 | 0.00 | 0.00 | 76 | 1013.1 |
| 20260506101011 | 64 | 322 | 0.9 | 2.6 | 0.00 | 0.00 | 0.00 | 76 | 1013.0 |
| 20260506100509 | 64 | 257 | 0.0 | 4.3 | 0.00 | 0.00 | 0.00 | 76 | 1012.9 |
| 20260506100007 | 64 | 231 | 2.6 | 3.5 | 0.00 | 0.00 | 0.00 | 76 | 1013.0 |
| 20260506095505 | 64 | 178 | 0.0 | 5.2 | 0.00 | 0.00 | 0.00 | 76 | 1012.7 |
| 20260506095001 | 64 | 208 | 1.7 | 3.5 | 0.00 | 0.00 | 0.00 | 76 | 1013.0 |
| 20260506094459 | 64 | 309 | 0.0 | 6.1 | 0.00 | 0.00 | 0.00 | 76 | 1013.0 |
| 20260506093956 | 64 | 75 | 0.0 | 3.5 | 0.00 | 0.00 | 0.00 | 77 | 1013.0 |
| 20260506093455 | 64 | 228 | 0.0 | 3.5 | 0.00 | 0.00 | 0.00 | 77 | 1012.7 |
| 20260506092952 | 64 | 273 | 1.7 | 3.5 | 0.00 | 0.00 | 0.00 | 77 | 1012.5 |
| 20260506092450 | 64 | 264 | 2.6 | 4.3 | 0.00 | 0.00 | 0.00 | 77 | 1012.7 |
| 20260506091946 | 64 | 84 | 0.9 | 0.9 | 0.00 | 0.00 | 0.00 | 78 | 1012.7 |
| 20260506091444 | 64 | 196 | 5.2 | 5.2 | 0.00 | 0.00 | 0.00 | 77 | 1012.6 |
| 20260506090941 | 64 | 269 | 0.0 | 5.2 | 0.00 | 0.00 | 0.00 | 77 | 1012.8 |
| 20260506090439 | 64 | 210 | 2.6 | 5.2 | 0.00 | 0.00 | 0.00 | 77 | 1012.8 |
| 20260506085935 | 64 | 187 | 0.9 | 3.5 | 0.00 | 0.00 | 0.00 | 78 | 1013.0 |
| 20260506085432 | 64 | 249 | 3.5 | 5.2 | 0.00 | 0.00 | 0.00 | 77 | 1012.9 |
| 20260506084928 | 64 | 219 | 0.9 | 3.5 | 0.00 | 0.00 | 0.00 | 77 | 1013.2 |
| 20260506084426 | 64 | 241 | 1.7 | 3.5 | 0.00 | 0.00 | 0.00 | 77 | 1012.9 |
| 20260506083921 | 64 | 207 | 0.9 | 4.3 | 0.00 | 0.00 | 0.00 | 77 | 1013.2 |
| 20260506083419 | 64 | 264 | 1.7 | 3.5 | 0.00 | 0.00 | 0.00 | 77 | 1013.2 |
| 20260506082916 | 64 | 254 | 1.7 | 3.5 | 0.00 | 0.00 | 0.00 | 77 | 1013.2 |
| 20260506082414 | 64 | 145 | 0.9 | 3.5 | 0.00 | 0.00 | 0.00 | 77 | 1013.2 |
| 20260506081909 | 64 | 206 | 1.7 | 3.5 | 0.00 | 0.00 | 0.00 | 76 | 1013.4 |
| 20260506081408 | 64 | 219 | 0.9 | 2.6 | 0.00 | 0.00 | 0.00 | 76 | 1013.1 |
| 20260506080904 | 64 | 211 | 1.7 | 2.6 | 0.00 | 0.00 | 0.00 | 76 | 1013.3 |
| 20260506080402 | 64 | 168 | 0.0 | 1.7 | 0.00 | 0.00 | 0.00 | 76 | 1013.2 |
| 20260506073345 | 65 | 216 | 2.6 | 3.5 | 0.00 | 0.00 | 0.00 | 74 | 1013.4 |
| 20260506072842 | 65 | 261 | 0.0 | 2.6 | 0.00 | 0.00 | 0.00 | 74 | 1013.4 |
| 20260506072340 | 65 | 257 | 1.7 | 4.3 | 0.00 | 0.00 | 0.00 | 74 | 1013.4 |
| 20260506071837 | 65 | 161 | 0.9 | 2.6 | 0.00 | 0.00 | 0.00 | 73 | 1013.5 |
| 20260506071335 | 65 | 297 | 0.0 | 2.6 | 0.00 | 0.00 | 0.00 | 73 | 1013.2 |
| 20260506070831 | 66 | 145 | 0.0 | 2.6 | 0.00 | 0.00 | 0.00 | 73 | 1013.4 |
| 20260506070328 | 66 | 257 | 1.7 | 5.2 | 0.00 | 0.00 | 0.00 | 72 | 1013.5 |
| 20260506062306 | 67 | 277 | 0.9 | 5.2 | 0.00 | 0.00 | 0.00 | 71 | 1013.7 |
| 20260506061802 | 67 | 212 | 2.6 | 7.0 | 0.00 | 0.00 | 0.00 | 71 | 1013.7 |
| 20260506061259 | 67 | 257 | 0.9 | 1.7 | 0.00 | 0.00 | 0.00 | 71 | 1013.6 |
| 20260506060757 | 67 | 226 | 0.9 | 2.6 | 0.00 | 0.00 | 0.00 | 71 | 1013.5 |
| 20260506060254 | 67 | 243 | 1.7 | 2.6 | 0.00 | 0.00 | 0.00 | 70 | 1013.5 |
| 20260506051226 | 68 | 257 | 1.7 | 3.5 | 0.00 | 0.00 | 0.00 | 68 | 1013.9 |
| 20260506050724 | 68 | 217 | 2.6 | 6.1 | 0.00 | 0.00 | 0.00 | 67 | 1013.8 |
| 20260506050221 | 68 | 242 | 3.5 | 5.2 | 0.00 | 0.00 | 0.00 | 67 | 1013.9 |
| 20260506044707 | 68 | 229 | 0.0 | 1.7 | 0.00 | 0.00 | 0.00 | 66 | 1014.0 |
| 20260506044203 | 69 | 155 | 1.7 | 3.5 | 0.00 | 0.00 | 0.00 | 66 | 1014.3 |
| 20260506043701 | 69 | 250 | 1.7 | 2.6 | 0.00 | 0.00 | 0.00 | 65 | 1014.2 |
| 20260506043158 | 69 | 187 | 1.7 | 3.5 | 0.00 | 0.00 | 0.00 | 64 | 1014.2 |
| 20260506042657 | 69 | 245 | 0.9 | 3.5 | 0.00 | 0.00 | 0.00 | 63 | 1014.0 |
| 20260506042155 | 69 | 234 | 2.6 | 3.5 | 0.00 | 0.00 | 0.00 | 62 | 1014.2 |
| 20260506041653 | 70 | 150 | 1.7 | 3.5 | 0.00 | 0.00 | 0.00 | 62 | 1014.0 |
| 20260506041150 | 70 | 244 | 2.6 | 5.2 | 0.00 | 0.00 | 0.00 | 61 | 1014.2 |
| 20260506040647 | 70 | 264 | 3.5 | 3.5 | 0.00 | 0.00 | 0.00 | 61 | 1014.1 |
| 20260506040144 | 70 | 251 | 1.7 | 2.6 | 0.00 | 0.00 | 0.00 | 60 | 1014.0 |
| 20260506035641 | 71 | 237 | 2.6 | 5.2 | 0.00 | 0.00 | 0.00 | 60 | 1014.2 |
| 20260506035138 | 70 | 247 | 1.7 | 2.6 | 0.00 | 0.00 | 0.00 | 60 | 1014.1 |
| 20260506034635 | 71 | 212 | 1.7 | 4.3 | 0.00 | 0.00 | 0.00 | 59 | 1014.1 |
| 20260506034132 | 71 | 188 | 3.5 | 5.2 | 0.00 | 0.00 | 0.00 | 59 | 1014.0 |